EW4378 Weather Reports


time (UTC)temp
F
wind
direction
speed
knots
gust
knots
rain 1hr
in
rain 24hr
in
rain mn
in
humidity
%
barometer
mb
20260506134522 56 218 17.4 21.7 0.00 0.00 0.00 1 1012.5
20260506133018 56 231 17.4 21.7 0.00 0.00 0.00 1 1012.5
20260506131518 56 217 14.8 20.0 0.00 0.00 0.00 1 1012.2
20260506130017 56 167 16.5 21.7 0.00 0.00 0.00 1 1012.2
20260506124515 56 210 17.4 22.6 0.00 0.00 0.00 1 1012.5
20260506123016 56 215 18.2 25.2 0.00 0.00 0.00 1 1012.6
20260506121508 56 203 20.0 26.9 0.00 0.00 0.00 1 1012.4
20260506120004 56 210 18.2 26.1 0.00 0.00 0.00 1 1012.4
20260506114503 56 204 18.2 24.3 0.00 0.00 0.00 1 1012.2
20260506113002 56 226 19.1 25.2 0.00 0.00 0.00 1 1012.5
20260506111559 55 268 17.4 22.6 0.00 0.00 0.00 1 1012.4
20260506110054 56 248 18.2 23.5 0.00 0.00 0.00 1 1012.4
20260506104549 56 225 16.5 23.5 0.00 0.00 0.00 1 1012.2
20260506103044 56 233 18.2 24.3 0.00 0.00 0.00 1 1012.4
20260506101540 56 181 19.1 27.8 0.00 0.00 0.00 1 1012.3
20260506100035 56 236 20.0 27.8 0.00 0.00 0.00 1 1012.2
20260506094535 56 214 19.1 25.2 0.00 0.00 0.00 1 1012.2
20260506093041 56 210 19.1 24.3 0.00 0.00 0.00 1 1012.1
20260506091524 56 221 19.1 26.9 0.00 0.00 0.00 1 1012.1
20260506090016 56 238 20.9 26.9 0.00 0.00 0.00 1 1012.2
20260506084511 56 210 20.0 26.1 0.00 0.00 0.00 1 1012.3
20260506083006 56 219 20.9 26.1 0.00 0.00 0.00 1 1012.4
20260506081504 56 234 19.1 26.9 0.00 0.00 0.00 1 1012.6
20260506080112 57 226 20.0 26.1 0.00 0.00 0.00 1 1012.5
20260506073054 57 242 18.2 24.3 0.00 0.00 0.00 1 1013.1
20260506071550 57 219 19.1 26.9 0.00 0.00 0.00 1 1012.9
20260506061535 57 231 21.7 26.1 0.00 0.00 0.00 1 1012.6
20260506044512 58 233 19.1 26.1 0.00 0.00 0.00 1 1013.0
20260506043100 58 225 20.0 27.8 0.00 0.00 0.00 1 1013.0
20260506041558 58 207 22.6 26.9 0.00 0.00 0.00 1 1013.1
20260506040052 58 226 20.9 26.1 0.00 0.00 0.00 1 1013.2
20260506034550 57 232 19.1 23.5 0.00 0.00 0.00 1 1013.4
20260506033045 57 230 17.4 22.6 0.00 0.00 0.00 1 1013.5
20260506031554 57 240 16.5 20.9 0.00 0.00 0.00 1 1013.4
20260506030043 57 237 17.4 20.9 0.00 0.00 0.00 1 1013.5
20260506024535 57 243 16.5 23.5 0.00 0.00 0.00 1 1013.5
20260506023026 57 238 19.1 23.5 0.00 0.00 0.00 1 1013.4
20260506021522 57 231 19.1 24.3 0.00 0.00 0.00 1 1013.4
20260506020021 57 232 19.1 24.3 0.00 0.00 0.00 1 1013.3
20260506014520 57 225 20.9 26.1 0.00 0.00 0.00 1 1013.1
20260506013023 57 232 20.0 24.3 0.00 0.00 0.00 1 1013.1
20260506011522 57 237 21.7 26.9 0.00 0.00 0.00 1 1012.9
20260506010018 57 229 24.3 30.4 0.00 0.00 0.00 1 1012.7
20260506004518 58 236 24.3 32.2 0.00 0.00 0.00 1 1012.3
20260506003016 58 224 25.2 34.8 0.00 0.00 0.00 1 1012.1
20260506001517 58 233 25.2 30.4 0.00 0.00 0.00 1 1012.0
20260506000014 58 233 25.2 31.3 0.00 0.00 0.00 1 1011.9
20260505234522 58 218 23.5 32.2 0.00 0.00 0.00 1 1011.5
20260505233006 58 266 25.2 35.6 0.00 0.00 0.00 1 1011.3
20260505231600 58 214 25.2 34.8 0.00 0.00 0.00 1 1011.2
20260505230056 58 256 27.8 33.9 0.00 0.00 0.00 1 1010.9
20260505224552 58 237 25.2 34.8 0.00 0.00 0.00 1 1010.9
20260505223059 58 193 24.3 36.5 0.00 0.00 0.00 1 1010.8
20260505221556 58 219 26.9 35.6 0.00 0.00 0.00 1 1010.8
20260505220040 57 217 24.3 31.3 0.00 0.00 0.00 1 1010.8
20260505214539 57 232 24.3 30.4 0.00 0.00 0.00 1 1010.5
20260505213028 57 207 24.3 32.2 0.00 0.00 0.00 1 1010.5
20260505211528 57 204 26.1 33.9 0.00 0.00 0.00 1 1010.4
20260505210030 58 224 23.5 30.4 0.00 0.00 0.00 1 1010.2
20260505204528 58 276 22.6 29.5 0.00 0.00 0.00 1 1010.3
20260505203024 57 193 20.9 26.9 0.00 0.00 0.00 1 1010.4
20260505201517 57 214 20.9 28.7 0.00 0.00 0.00 1 1010.5
20260505200021 57 215 20.9 27.8 0.00 0.00 0.00 1 1010.6
20260505194507 56 257 20.9 26.1 0.00 0.00 0.00 1 1011.0
20260505193002 56 210 17.4 21.7 0.00 0.00 0.00 1 1011.2
20260505191558 56 217 15.6 20.9 0.00 0.00 0.00 1 1011.7
20260505190059 56 245 12.2 15.6 0.00 0.00 0.00 1 1012.3
20260505184550 55 248 12.2 16.5 0.00 0.00 0.00 1 1012.5
20260505183052 55 236 13.9 16.5 0.00 0.00 0.00 1 1012.5
20260505181549 55 238 13.9 16.5 0.00 0.00 0.00 1 1012.5
20260505180046 55 229 12.2 17.4 0.00 0.00 0.00 1 1012.6
20260505174548 55 240 13.0 17.4 0.00 0.00 0.00 1 1012.6
20260505173046 55 233 14.8 17.4 0.00 0.00 0.00 1 1012.7
20260505171537 55 234 13.9 16.5 0.00 0.00 0.00 1 1012.7
20260505170035 55 214 13.0 17.4 0.00 0.00 0.00 1 1012.7
20260505164530 55 230 14.8 18.2 0.00 0.00 0.00 1 1012.9
20260505163026 55 236 13.9 16.5 0.00 0.00 0.00 1 1013.0
20260505161526 55 229 12.2 14.8 0.00 0.00 0.00 1 1013.3
20260505153005 55 235 14.8 16.5 0.00 0.00 0.00 1 1013.6
20260505151611 55 240 13.9 17.4 0.00 0.00 0.00 1 1013.7
20260505151502 55 237 13.9 19.1 0.00 0.00 0.00 1 1013.7